[[{"header":{"parameterUnit":"m.s-1","parameterCategory":2,"la1":30.2991,"la2":30.254,"lo1":-89.0895,"lo2":-89.0444,"dy":0.0017,"dx":0.0017,"nx":28,"ny":28,"refTime":"2025-07-07T09:00:00:Z","depth":"0","parameterNumber":2,"parameterNumberName":"U-component_of_CURRENTS"},"data":[0,0,0,0,0,0,0,0,0,0,0,0,0,0,0,0,0,0,0,0,0,0,0,0,0,0,0,0,0,0,0,0,0,0,0,0,0,0,0,0,0,0,0,0,0,0,0,0,0,0,0,0,0,0,0,0,0,0,0.3857,0.3858,0,0.3926,0.3927,0.3927,0.3925,0.3924,0.3923,0.3922,0.4038,0.4042,0.4046,0,0,0,0,0,0,0,0,0,0,0,0,0,0.3738,0.374,0.3857,0.3858,0.3859,0.3926,0.3927,0.3927,0.3925,0.3924,0.3923,0.3922,0.4037,0.4042,0.4046,0,0,0,0,0,0,0,0,0,0,0,0,0,0.3796,0.374,0.3856,0.3866,0.3867,0.3926,0.3927,0.3928,0.3925,0.3924,0.3923,0.3921,0.4035,0.4041,0.4047,0.411,0,0,0.4065,0.4068,0,0,0,0,0,0,0,0,0.3792,0.38,0.3864,0.3865,0.3867,0.3916,0.3927,0.3991,0.3926,0.3903,0.3922,0.3921,0.4003,0.4012,0.4026,0.4116,0.4121,0.4065,0.4069,0.4072,0.4073,0,0,0,0,0,0,0,0.3788,0.3797,0.3883,0.3865,0.3867,0.3872,0.3878,0.3939,0.396,0.3904,0.3905,0.3914,0.4004,0.402,0.4029,0.4122,0.4065,0.4071,0.4074,0.4076,0.4325,0.4328,0,0,0,0,0,0,0.3782,0.3794,0.3881,0.3885,0.3826,0.3875,0.3882,0.3901,0.3958,0.3966,0.3915,0.3914,0.4011,0.4022,0.4033,0.414,0.4072,0.4077,0.408,0.4322,0.4326,0.4329,0,0,0,0,0,0,0.378,0.379,0.3878,0.3841,0.3852,0.3879,0.39,0.3903,0.3917,0.3966,0.3973,0.3924,0.401,0.4025,0.4113,0.4143,0.408,0.4085,0.4319,0.4323,0.4328,0.4336,0,0,0,0,0,0,0.3776,0.3789,0.3804,0.3841,0.3854,0.3916,0.3901,0.3906,0.3925,0.3924,0.3977,0.3986,0.401,0.4104,0.4119,0.415,0.409,0.4315,0.4321,0.4326,0.4332,0.434,0.4347,0,0,0,0,0,0.3772,0.3796,0.3804,0.3815,0.3873,0.3918,0.3925,0.3938,0.3927,0.3943,0.3994,0.3984,0.4151,0.4112,0.4128,0.4162,0.4312,0.4319,0.4326,0.4328,0.4338,0.4347,0,0,0,0,0,0,0.3754,0.38,0.3809,0.3846,0.3881,0.3917,0.3937,0.3942,0.3993,0.3995,0.403,0.4045,0.4128,0.416,0.4116,0.4255,0.4228,0.4239,0.4225,0.4235,0.4242,0.4249,0.4095,0,0,0,0,0,0.3758,0.3786,0.3829,0.386,0.3879,0.3908,0.3928,0.3938,0.3985,0.4002,0.4042,0.4103,0.4173,0.4212,0.4271,0.4356,0.4413,0.4391,0.4398,0.4404,0.4425,0.456,0.4582,0.4352,0.4352,0.4352,0,0,0.376,0.3788,0.3805,0.3858,0.3885,0.3942,0.3917,0.3952,0.4004,0.4013,0.4096,0.4128,0.4202,0.429,0.4331,0.4319,0.4499,0.4413,0.4417,0.4436,0.457,0.4592,0.4612,0.4357,0.4356,0.4355,0,0,0.3791,0.3805,0.3849,0.3883,0.393,0.3957,0.3968,0.4012,0.4035,0.4119,0.414,0.4197,0.4301,0.4355,0.44,0.4496,0.4531,0.451,0.456,0.469,0.471,0.4728,0.4814,0.4839,0.4519,0.4519,0.4519,0,0.3793,0.3857,0.3867,0.3925,0.3963,0.3969,0.4034,0.407,0.4137,0.4183,0.4151,0.4316,0.4338,0.4476,0.4489,0.451,0.4584,0.4506,0.4699,0.4718,0.4736,0.482,0.4848,0.452,0.452,0.452,0.452,0,0.3869,0.3919,0.3947,0.4027,0.4069,0.4116,0.417,0.4214,0.4233,0.4276,0.4387,0.4425,0.4528,0.4529,0.4532,0.4676,0.4684,0.4683,0.4664,0.4759,0.4842,0.4871,0.4522,0.4521,0.4521,0.4521,0,0,0.3865,0.3981,0.3986,0.4045,0.4123,0.4166,0.426,0.4357,0.443,0.4474,0.4583,0.4651,0.4654,0.4706,0.4713,0.4791,0.4936,0.4786,0.4792,0.4852,0.5218,0.511,0.5131,0.4979,0.4984,0.4989,0.5216,0,0.3922,0.4042,0.4087,0.4202,0.4272,0.4316,0.4407,0.449,0.4548,0.4649,0.4694,0.4792,0.4734,0.4771,0.485,0.4925,0.5019,0.4874,0.5134,0.5142,0.502,0.5164,0.4874,0.5044,0.5245,0.5249,0.5253,0,0.3984,0.4056,0.4178,0.4307,0.4341,0.4407,0.4543,0.4629,0.4765,0.4811,0.4912,0.4949,0.5072,0.4991,0.5205,0.5125,0.5181,0.5217,0.5228,0.515,0.509,0.4989,0.5089,0.4947,0.5298,0.5294,0.5291,0,0.3991,0.4119,0.4215,0.4257,0.4403,0.4464,0.4541,0.4676,0.4765,0.4919,0.4998,0.5146,0.5228,0.5342,0.5397,0.5337,0.5617,0.5554,0.5519,0.5511,0.5326,0.5292,0.5302,0.573,0.573,0.5729,0.5729,0,0.4052,0.4128,0.4217,0.428,0.439,0.4479,0.4612,0.4709,0.4855,0.4986,0.5079,0.5204,0.5324,0.5474,0.5505,0.5613,0.5732,0.5569,0.5587,0.5317,0.5281,0.5195,0.5158,0.5738,0.5736,0.5734,0.5733,0,0.4093,0.4145,0.4259,0.438,0.4408,0.4492,0.4639,0.4745,0.4874,0.5049,0.5108,0.5308,0.5499,0.5603,0.5795,0.5754,0.5692,0.586,0.5505,0.5475,0.5241,0.5215,0.5142,0.4997,0.5861,0.586,0.586,0,0.4157,0.4214,0.4308,0.4366,0.4426,0.4532,0.4617,0.4741,0.4848,0.5109,0.52,0.5429,0.5544,0.5774,0.5768,0.5845,0.5696,0.5617,0.5431,0.5226,0.5214,0.5031,0.49,0.5193,0.5187,0.5182,0.5177,0,0.4294,0.4294,0.438,0.4443,0.4517,0.4585,0.4699,0.4759,0.4928,0.5039,0.5214,0.5317,0.5534,0.5471,0.5568,0.5568,0.5315,0.5513,0.5417,0.4799,0.4493,0.4358,0.5029,0.5132,0.5137,0.514,0.5143,0.5144,0.44,0.4432,0.4487,0.453,0.459,0.4592,0.4584,0.4687,0.4756,0.4828,0.5072,0.5075,0.5156,0.5222,0.5217,0.4997,0.5043,0.4799,0.4823,0.4685,0.4412,0.4963,0.5008,0.5012,0.5015,0.5018,0.502,0,0.4487,0.4495,0.4575,0.4563,0.4541,0.4565,0.4601,0.4518,0.4481,0.4583,0.4636,0.4602,0.4545,0.4591,0.4501,0.4323,0.4107,0.4206,0.3876,0.3813,0.4407,0.4238,0.3975,0.3976,0.3976,0.3976,0.3976,0.3976,0.4554,0.4577,0.4541,0.4468,0.4439,0.4288,0.4234,0.4132,0.4109,0.3952,0.386,0.3924,0.413,0.4166,0.3974,0.386,0.3584,0.3388,0.3475,0.3879,0.3934,0.3986,0.3815,0.3469,0.3468,0.2627,0.2621,0.2617]},{"header":{"parameterUnit":"m.s-1","parameterCategory":2,"la1":30.2991,"la2":30.254,"lo1":-89.0895,"lo2":-89.0444,"dy":0.0017,"dx":0.0017,"nx":28,"ny":28,"refTime":"2025-07-07T09:00:00:Z","depth":"0","parameterNumber":3,"parameterNumberName":"V-component_of_CURRENTS"},"data":[0,0,0,0,0,0,0,0,0,0,0,0,0,0,0,0,0,0,0,0,0,0,0,0,0,0,0,0,0,0,0,0,0,0,0,0,0,0,0,0,0,0,0,0,0,0,0,0,0,0,0,0,0,0,0,0,0,0,0.0237,0.0237,0,0.0207,0.0207,0.0206,0.0152,0.0151,0.0151,0.015,0.0083,0.0082,0.0081,0,0,0,0,0,0,0,0,0,0,0,0,0,0.0208,0.0209,0.0237,0.0237,0.0237,0.0208,0.0207,0.0206,0.0152,0.0151,0.015,0.015,0.0083,0.0082,0.0081,0,0,0,0,0,0,0,0,0,0,0,0,0,0.0201,0.0209,0.0237,0.0208,0.0206,0.0208,0.0207,0.0206,0.0153,0.0151,0.015,0.0149,0.0084,0.0082,0.0081,0.0095,0,0,0.0076,0.0075,0,0,0,0,0,0,0,0,0.0202,0.0202,0.0213,0.021,0.0207,0.0185,0.0172,0.0168,0.0153,0.017,0.015,0.0149,0.0116,0.0112,0.0106,0.0092,0.0089,0.0076,0.0075,0.0074,0.0074,0,0,0,0,0,0,0,0.0202,0.0203,0.0223,0.0213,0.021,0.0184,0.0182,0.0171,0.0147,0.0168,0.0165,0.0166,0.0114,0.0107,0.0104,0.0088,0.0076,0.0074,0.0073,0.0073,0.0072,0.0073,0,0,0,0,0,0,0.0215,0.0204,0.0224,0.0222,0.0205,0.0186,0.0183,0.0191,0.0148,0.0142,0.0167,0.0164,0.0111,0.0105,0.0101,0.0136,0.0074,0.0073,0.0072,0.0071,0.0072,0.0073,0,0,0,0,0,0,0.0215,0.0217,0.0225,0.0214,0.0213,0.0188,0.0197,0.0191,0.0182,0.0148,0.014,0.0164,0.0109,0.0103,0.0101,0.0132,0.0072,0.007,0.007,0.0072,0.0073,0.0192,0,0,0,0,0,0,0.0214,0.0218,0.0229,0.0215,0.0214,0.0241,0.0198,0.0192,0.0186,0.0181,0.0143,0.0136,0.0108,0.0104,0.0099,0.0129,0.0069,0.0069,0.0071,0.0073,0.0187,0.0198,0.0207,0,0,0,0,0,0.0213,0.0245,0.023,0.0232,0.023,0.0243,0.0241,0.0216,0.0187,0.0199,0.017,0.0137,0.0111,0.0104,0.0098,0.0128,0.0068,0.007,0.0072,0.0183,0.0196,0.0206,0,0,0,0,0,0,0.0238,0.0242,0.0225,0.0255,0.0252,0.0235,0.0246,0.0222,0.0208,0.0198,0.0154,0.0147,0.0155,0.0123,0.0115,0.013,0.0082,0.0083,0.0168,0.0179,0.0189,0.0215,0.0068,0,0,0,0,0,0.025,0.0272,0.0265,0.0287,0.029,0.0265,0.0265,0.0248,0.0234,0.0225,0.0199,0.0171,0.0161,0.0155,0.0138,0.0152,0.0134,0.0163,0.0173,0.0182,0.0198,0.0212,0.0226,0.008,0.008,0.008,0,0,0.0265,0.027,0.0281,0.0294,0.0286,0.0316,0.0262,0.0272,0.0295,0.0222,0.0242,0.0205,0.0171,0.0186,0.0187,0.0164,0.021,0.0184,0.0192,0.0204,0.0216,0.0231,0.0243,0.0082,0.0082,0.0081,0,0,0.032,0.0311,0.0352,0.0359,0.0362,0.0352,0.0358,0.0345,0.0338,0.035,0.0304,0.0294,0.027,0.0263,0.0253,0.0306,0.026,0.0286,0.0362,0.0377,0.0389,0.04,0.0388,0.0397,0.0293,0.0293,0.0293,0,0.0336,0.0389,0.0366,0.0409,0.0426,0.0375,0.0425,0.0418,0.0405,0.0413,0.0371,0.0355,0.0315,0.0352,0.0357,0.0332,0.0318,0.0325,0.0393,0.0403,0.0412,0.0396,0.0405,0.0299,0.0299,0.0298,0.0297,0,0.043,0.0465,0.049,0.0528,0.0543,0.0575,0.0566,0.057,0.0543,0.0534,0.0551,0.0501,0.0496,0.0473,0.0426,0.0474,0.0434,0.0405,0.0371,0.0435,0.0413,0.042,0.0308,0.0306,0.0304,0.0302,0,0,0.048,0.0546,0.0552,0.0591,0.0609,0.0634,0.0671,0.07,0.0735,0.0702,0.0757,0.071,0.0672,0.0657,0.0603,0.0597,0.063,0.0527,0.0525,0.0528,0.0645,0.0575,0.0574,0.0614,0.0616,0.0617,0.0601,0,0.0558,0.0664,0.0676,0.0767,0.0818,0.0794,0.0841,0.0853,0.0846,0.0884,0.0834,0.0861,0.075,0.0754,0.0732,0.0667,0.0654,0.0636,0.057,0.0568,0.051,0.0582,0.054,0.0519,0.0607,0.0608,0.0609,0,0.0648,0.0707,0.0815,0.0893,0.0914,0.0959,0.1017,0.1056,0.1081,0.1079,0.1083,0.1045,0.1042,0.0937,0.0868,0.086,0.0762,0.0693,0.069,0.0591,0.0511,0.0469,0.0527,0.0328,0.0619,0.0618,0.0617,0,0.0704,0.0803,0.0893,0.092,0.0999,0.104,0.1079,0.1113,0.1172,0.1217,0.1271,0.1235,0.1256,0.1138,0.0975,0.0933,0.089,0.082,0.0664,0.0656,0.0591,0.0575,0.0464,0.0776,0.0776,0.0776,0.0776,0,0.0789,0.0859,0.0924,0.0981,0.1081,0.1111,0.1222,0.1247,0.1328,0.1446,0.1386,0.1478,0.1309,0.1254,0.1064,0.0896,0.0965,0.0697,0.0662,0.0627,0.0615,0.0412,0.0287,0.0775,0.0776,0.0776,0.0776,0,0.0842,0.0887,0.0994,0.1088,0.1115,0.1187,0.1312,0.1402,0.1464,0.1624,0.166,0.1683,0.1627,0.1423,0.1255,0.1039,0.073,0.0777,0.073,0.0689,0.0328,0.0212,0.0045,-0.0042,0.0609,0.0607,0.0606,0,0.0891,0.0949,0.1062,0.1121,0.1167,0.1273,0.136,0.1451,0.157,0.1767,0.1869,0.1878,0.1915,0.1623,0.1257,0.0931,0.0712,0.064,0.0543,0.0322,0.0167,0.008,0.0013,0.0498,0.0496,0.0495,0.0493,0,0.0975,0.1002,0.1079,0.1196,0.1293,0.1424,0.1566,0.168,0.184,0.2002,0.2214,0.2267,0.2013,0.168,0.1205,0.096,0.0471,0.0592,0.0396,0.0103,-0.0028,-0.0133,0.0473,0.0478,0.0479,0.048,0.0481,0.0482,0.1032,0.1075,0.1165,0.1274,0.1392,0.1573,0.1706,0.1897,0.2124,0.239,0.2437,0.2534,0.2023,0.1392,0.1045,0.0348,0.0371,0.0106,-0.0007,-0.0065,-0.0184,0.037,0.0311,0.0312,0.0312,0.0313,0.0313,0,0.1101,0.1144,0.1245,0.1391,0.1537,0.1596,0.1846,0.2016,0.231,0.2514,0.2693,0.2452,0.1835,0.1202,0.0282,-0.0176,-0.0322,-0.0425,-0.0552,-0.0583,-0.0056,-0.0096,-0.0284,-0.0284,-0.0284,-0.0283,-0.0283,-0.0283,0.1147,0.1231,0.1267,0.1488,0.1602,0.1824,0.1979,0.2245,0.2429,0.2649,0.2666,0.2664,0.2143,0.0566,-0.0462,-0.0684,-0.0982,-0.1091,-0.1193,-0.085,-0.0808,-0.0769,-0.0833,-0.1173,-0.1174,-0.1667,-0.1672,-0.1676]}],[{"header":{"parameterUnit":"m.s-1","parameterCategory":2,"la1":30.2991,"la2":30.254,"lo1":-89.0895,"lo2":-89.0444,"dy":0.0017,"dx":0.0017,"nx":28,"ny":28,"refTime":"2025-07-07T09:00:00:Z","depth":"2","parameterNumber":2,"parameterNumberName":"U-component_of_CURRENTS"},"data":[0,0,0,0,0,0,0,0,0,0,0,0,0,0,0,0,0,0,0,0,0,0,0,0,0,0,0,0,0,0,0,0,0,0,0,0,0,0,0,0,0,0,0,0,0,0,0,0,0,0,0,0,0,0,0,0,0,0,0.3155,0.3156,0,0.3227,0.3228,0.3228,0.3239,0.3239,0.3238,0.3238,0.325,0.325,0.3251,0,0,0,0,0,0,0,0,0,0,0,0,0,0.3044,0.3046,0.3155,0.3156,0.3158,0.3227,0.3228,0.3229,0.3239,0.3238,0.3238,0.3238,0.325,0.325,0.3251,0,0,0,0,0,0,0,0,0,0,0,0,0,0.3098,0.3046,0.3155,0.3174,0.3177,0.3227,0.3228,0.3229,0.3239,0.3238,0.3238,0.3238,0.3249,0.325,0.3251,0.3267,0,0,0.3254,0.3254,0,0,0,0,0,0,0,0,0.3095,0.3102,0.317,0.3173,0.3176,0.3227,0.3193,0.324,0.3239,0.3211,0.3238,0.3237,0.3239,0.3241,0.3251,0.3267,0.3268,0.3254,0.3255,0.3255,0.3255,0,0,0,0,0,0,0,0.3091,0.3099,0.318,0.3171,0.3175,0.3185,0.3192,0.3202,0.3223,0.3214,0.3216,0.323,0.324,0.325,0.3251,0.3268,0.3254,0.3255,0.3255,0.3256,0.3457,0.3461,0,0,0,0,0,0,0.309,0.3095,0.3178,0.3183,0.3138,0.3188,0.3195,0.3208,0.3224,0.3228,0.323,0.323,0.3249,0.325,0.3252,0.3343,0.3255,0.3256,0.3256,0.3452,0.3458,0.3463,0,0,0,0,0,0,0.3087,0.3096,0.3175,0.3143,0.3155,0.3191,0.3205,0.321,0.3231,0.3238,0.324,0.3247,0.3249,0.3251,0.3317,0.334,0.3256,0.3257,0.3446,0.3454,0.346,0.3478,0,0,0,0,0,0,0.3084,0.3095,0.3114,0.3143,0.3157,0.3212,0.3206,0.3212,0.3241,0.3242,0.3253,0.3254,0.3248,0.3316,0.3318,0.334,0.3258,0.344,0.345,0.3458,0.3472,0.3485,0.3497,0,0,0,0,0,0.3079,0.3108,0.3115,0.3125,0.3178,0.3213,0.3221,0.3242,0.3243,0.3257,0.33,0.3254,0.3375,0.3321,0.3322,0.3344,0.3436,0.3447,0.3457,0.3466,0.3483,0.3496,0,0,0,0,0,0,0.3067,0.3114,0.3121,0.3161,0.3188,0.3217,0.3241,0.3251,0.3294,0.3305,0.3303,0.3309,0.3367,0.3383,0.3324,0.3444,0.3402,0.3413,0.3409,0.3424,0.3436,0.3446,0.3259,0,0,0,0,0,0.3075,0.3106,0.3143,0.3172,0.319,0.3216,0.3237,0.3254,0.3292,0.331,0.3324,0.3369,0.3413,0.344,0.3469,0.3532,0.3559,0.3561,0.3574,0.3583,0.3603,0.3694,0.3715,0.3498,0.3498,0.3498,0,0,0.3081,0.3106,0.3128,0.3172,0.3194,0.3238,0.3226,0.3267,0.331,0.3305,0.3372,0.3394,0.3441,0.3511,0.3541,0.3526,0.3662,0.3597,0.3604,0.3619,0.3707,0.3728,0.3746,0.3505,0.3504,0.3503,0,0,0.3108,0.3128,0.3169,0.3194,0.3239,0.3261,0.3276,0.3319,0.3343,0.3421,0.3431,0.3482,0.3554,0.3584,0.3613,0.3723,0.3713,0.3746,0.3818,0.3906,0.3923,0.3938,0.3986,0.4005,0.3765,0.3765,0.3765,0,0.3117,0.3168,0.3184,0.3226,0.3252,0.3275,0.332,0.3359,0.3421,0.3466,0.3455,0.3593,0.3589,0.3692,0.3733,0.3738,0.3796,0.3735,0.3915,0.3931,0.3946,0.3992,0.4013,0.3767,0.3767,0.3767,0.3767,0,0.3163,0.3219,0.3241,0.3303,0.3328,0.3372,0.3418,0.3472,0.3508,0.3555,0.3659,0.3685,0.3776,0.3778,0.3784,0.3903,0.3909,0.3897,0.3854,0.3968,0.4011,0.4032,0.377,0.377,0.3769,0.3768,0,0,0.3171,0.326,0.328,0.3312,0.3373,0.3397,0.3484,0.3572,0.3646,0.3714,0.3814,0.3877,0.3902,0.3941,0.3946,0.4013,0.4128,0.4018,0.4022,0.4026,0.4328,0.4188,0.4197,0.4164,0.4168,0.4172,0.4306,0,0.3213,0.3297,0.3335,0.342,0.3458,0.3508,0.3578,0.3659,0.3735,0.3841,0.39,0.3996,0.3964,0.4014,0.4079,0.4125,0.4192,0.4092,0.4254,0.4258,0.4086,0.4219,0.3895,0.3977,0.4327,0.433,0.4333,0,0.3247,0.3305,0.3387,0.3472,0.3495,0.3552,0.3664,0.3726,0.3879,0.3956,0.4078,0.4134,0.4254,0.4196,0.4355,0.4311,0.4334,0.4351,0.4356,0.4236,0.4159,0.393,0.4002,0.4368,0.4365,0.4363,0.436,0,0.3216,0.3336,0.3396,0.3424,0.3532,0.3591,0.3643,0.3771,0.3851,0.4037,0.4147,0.4288,0.4377,0.446,0.4512,0.4467,0.4668,0.4598,0.449,0.4479,0.4237,0.4196,0.471,0.471,0.4709,0.4709,0.4709,0,0.3214,0.3288,0.3395,0.3434,0.3507,0.3571,0.3675,0.3768,0.3932,0.4044,0.4197,0.4319,0.446,0.4586,0.4596,0.4628,0.475,0.4532,0.4523,0.4234,0.4194,0.456,0.454,0.4714,0.4713,0.4712,0.4711,0,0.3185,0.3254,0.3341,0.3466,0.3491,0.3537,0.3667,0.3758,0.3929,0.4088,0.4169,0.4403,0.4554,0.4665,0.4794,0.4725,0.4765,0.4736,0.437,0.4313,0.4485,0.4467,0.4622,0.4619,0.4616,0.4613,0.4611,0,0.3182,0.3227,0.3337,0.3361,0.3425,0.3505,0.3561,0.3729,0.3812,0.4114,0.4172,0.4422,0.452,0.4672,0.4627,0.4644,0.4742,0.4334,0.4154,0.4511,0.4487,0.4472,0.4458,0.3845,0.3837,0.383,0.3825,0,0.3202,0.3249,0.3317,0.3378,0.3433,0.3471,0.3553,0.3592,0.3795,0.3963,0.4134,0.4254,0.439,0.4255,0.4305,0.4259,0.4301,0.4192,0.4726,0.39,0.3784,0.3758,0.3769,0.3765,0.3771,0.3776,0.3779,0.3781,0.3195,0.3242,0.3339,0.3367,0.3421,0.3402,0.3385,0.3487,0.3594,0.3703,0.3891,0.3937,0.3979,0.3846,0.3751,0.3693,0.3946,0.3778,0.3796,0.3823,0.3692,0.3575,0.3492,0.3496,0.35,0.3503,0.3506,0,0.3141,0.3198,0.3295,0.3268,0.3267,0.3375,0.3356,0.3299,0.3304,0.3432,0.3504,0.3254,0.3187,0.3257,0.3057,0.3036,0.2988,0.2934,0.2854,0.2917,0.2972,0.2794,0.2359,0.2355,0.2351,0.2347,0,0,0.3123,0.3158,0.3218,0.3144,0.3132,0.3131,0.3095,0.2979,0.2988,0.29,0.2877,0.3036,0.3173,0.2715,0.2662,0.2485,0.2678,0.2396,0.3329,0.3301,0.3351,0.3486,0.3288,0,0,0,0,0]},{"header":{"parameterUnit":"m.s-1","parameterCategory":2,"la1":30.2991,"la2":30.254,"lo1":-89.0895,"lo2":-89.0444,"dy":0.0017,"dx":0.0017,"nx":28,"ny":28,"refTime":"2025-07-07T09:00:00:Z","depth":"2","parameterNumber":3,"parameterNumberName":"V-component_of_CURRENTS"},"data":[0,0,0,0,0,0,0,0,0,0,0,0,0,0,0,0,0,0,0,0,0,0,0,0,0,0,0,0,0,0,0,0,0,0,0,0,0,0,0,0,0,0,0,0,0,0,0,0,0,0,0,0,0,0,0,0,0,0,0.0037,0.0037,0,0.0007,0.0007,0.0006,-0.0042,-0.0043,-0.0043,-0.0044,-0.013,-0.0132,-0.0134,0,0,0,0,0,0,0,0,0,0,0,0,0,0.0015,0.0015,0.0037,0.0037,0.0036,0.0008,0.0007,0.0006,-0.0042,-0.0043,-0.0044,-0.0044,-0.013,-0.0132,-0.0134,0,0,0,0,0,0,0,0,0,0,0,0,0,0.0006,0.0015,0.0037,0.0011,0.0009,0.0008,0.0007,0.0006,-0.0042,-0.0043,-0.0044,-0.0045,-0.0129,-0.0132,-0.0134,-0.0133,0,0,-0.0142,-0.0144,0,0,0,0,0,0,0,0,0.0006,0.0006,0.0015,0.0013,0.0011,-0.0012,-0.0032,-0.0042,-0.0042,-0.0026,-0.0044,-0.0045,-0.0093,-0.0099,-0.0106,-0.0137,-0.0141,-0.0143,-0.0144,-0.0145,-0.0146,0,0,0,0,0,0,0,0.0007,0.0007,0.0022,0.0015,0.0013,-0.001,-0.0013,-0.0035,-0.0058,-0.0028,-0.003,-0.0028,-0.0095,-0.0104,-0.0109,-0.0142,-0.0143,-0.0145,-0.0147,-0.0148,-0.0184,-0.0183,0,0,0,0,0,0,0.002,0.0008,0.0023,0.0021,0.001,-0.0009,-0.0012,-0.0006,-0.0057,-0.0064,-0.0027,-0.003,-0.0099,-0.0106,-0.0112,-0.0096,-0.0145,-0.0148,-0.0149,-0.0184,-0.0184,-0.0183,0,0,0,0,0,0,0.002,0.0022,0.0024,0.0016,0.0015,-0.0007,-0.0001,-0.0006,-0.0014,-0.0055,-0.0064,-0.0029,-0.01,-0.0108,-0.0123,-0.0101,-0.0149,-0.0151,-0.0185,-0.0184,-0.0183,-0.0075,0,0,0,0,0,0,0.002,0.0022,0.0032,0.0017,0.0016,0.0036,-0.0,-0.0006,-0.0009,-0.0014,-0.0059,-0.0068,-0.0101,-0.0119,-0.0126,-0.0105,-0.0153,-0.0186,-0.0185,-0.0184,-0.008,-0.0071,-0.0063,0,0,0,0,0,0.0019,0.0043,0.0032,0.0034,0.003,0.0038,0.0035,0.0013,-0.0008,0.0,-0.0034,-0.0067,-0.0117,-0.012,-0.0129,-0.0108,-0.0186,-0.0185,-0.0184,-0.0083,-0.0073,-0.0063,0,0,0,0,0,0,0.0036,0.004,0.0028,0.0051,0.0049,0.0031,0.0038,0.0021,0.0001,-0.0007,-0.0055,-0.0065,-0.0072,-0.0106,-0.0109,-0.0117,-0.0159,-0.0159,-0.008,-0.007,-0.0062,-0.0041,-0.0156,0,0,0,0,0,0.0047,0.0065,0.0059,0.0077,0.0079,0.0058,0.0057,0.0045,0.0027,0.0017,-0.0015,-0.005,-0.0072,-0.0083,-0.011,-0.011,-0.0145,-0.0106,-0.0097,-0.009,-0.008,-0.0103,-0.0096,-0.0178,-0.0178,-0.0178,0,0,0.0057,0.0063,0.0072,0.0082,0.0075,0.0097,0.0054,0.0064,0.0078,0.0011,0.0015,-0.0022,-0.0067,-0.0067,-0.0073,-0.0092,-0.0087,-0.0088,-0.0081,-0.0075,-0.0101,-0.0093,-0.0085,-0.0177,-0.0178,-0.0178,0,0,0.0098,0.0093,0.0124,0.0132,0.0137,0.0128,0.0135,0.0122,0.0111,0.0114,0.0068,0.0045,0.0014,-0.0011,-0.0029,0.0006,-0.0044,-0.0003,0.006,0.0037,0.0044,0.005,0.0011,0.0013,0.0003,0.0003,0.0003,0,0.0109,0.0152,0.0134,0.0168,0.0183,0.0148,0.0184,0.0174,0.0158,0.0157,0.0129,0.0087,0.0042,0.0044,0.0054,0.0027,0.0003,0.003,0.005,0.0055,0.0059,0.0018,0.0018,0.0008,0.0008,0.0007,0.0007,0,0.0175,0.021,0.023,0.0262,0.0269,0.03,0.0286,0.0287,0.0266,0.0254,0.0247,0.0191,0.0169,0.0148,0.0112,0.0123,0.0092,0.0065,0.0032,0.0075,0.0027,0.0026,0.0016,0.0014,0.0012,0.0011,0,0,0.0212,0.0267,0.028,0.0312,0.0326,0.0344,0.0363,0.0376,0.0399,0.0365,0.0393,0.0337,0.0305,0.0282,0.0232,0.0206,0.0202,0.0158,0.0154,0.0131,0.0149,0.0092,0.0084,0.0187,0.0188,0.0188,0.0103,0,0.0275,0.0364,0.0369,0.0446,0.0488,0.0465,0.049,0.049,0.0479,0.0496,0.0435,0.0444,0.0359,0.0362,0.0321,0.0242,0.0204,0.0227,0.01,0.0096,0.0051,0.0083,0.0113,0.0038,0.0101,0.0101,0.01,0,0.0343,0.0401,0.0488,0.0548,0.0562,0.0595,0.0628,0.0645,0.0644,0.0643,0.0629,0.0589,0.0554,0.0478,0.0357,0.0382,0.0275,0.0197,0.0192,0.0102,0.0037,0.0004,0.0032,0.0097,0.0097,0.0097,0.0098,0,0.0394,0.0482,0.0557,0.0581,0.0638,0.0665,0.0683,0.069,0.0733,0.0745,0.0797,0.0721,0.0721,0.0583,0.042,0.0398,0.0283,0.0226,0.0066,0.006,0.0041,0.0032,0.0134,0.0134,0.0134,0.0134,0.0135,0,0.0462,0.0526,0.059,0.0644,0.0724,0.0727,0.081,0.0814,0.0867,0.0958,0.0884,0.0946,0.0753,0.0666,0.0479,0.0279,0.0324,0.0084,0.0041,0.0076,0.0072,0.0086,0.0082,0.0131,0.0132,0.0132,0.0133,0,0.0501,0.0546,0.0645,0.0731,0.0754,0.0806,0.0906,0.0977,0.1013,0.1136,0.1163,0.1129,0.101,0.0792,0.0572,0.0375,0.0173,0.0084,0.0128,0.0092,-0.0059,-0.0057,-0.0111,-0.0114,-0.0116,-0.0118,-0.0119,0,0.0528,0.0587,0.0711,0.0769,0.0812,0.09,0.0973,0.1038,0.1135,0.1261,0.1338,0.1275,0.1242,0.0882,0.0526,0.018,0.0154,-0.002,-0.0076,-0.0044,-0.008,-0.0075,-0.007,-0.0063,-0.0064,-0.0065,-0.0066,0,0.0581,0.0626,0.0699,0.0818,0.091,0.1052,0.1168,0.1281,0.1392,0.1521,0.1643,0.1625,0.128,0.0935,0.0456,0.0222,0.0032,-0.005,0.0002,-0.001,-0.0007,-0.004,-0.0035,-0.0073,-0.0072,-0.0071,-0.0071,-0.0071,0.0602,0.0629,0.0716,0.0814,0.0988,0.1191,0.1321,0.1481,0.1671,0.1848,0.1814,0.1784,0.1388,0.075,0.0361,-0.0047,-0.0044,-0.0186,-0.018,-0.0174,-0.0157,-0.0158,-0.025,-0.025,-0.025,-0.025,-0.0251,0,0.0575,0.0585,0.0698,0.0855,0.11,0.1179,0.1444,0.1599,0.1853,0.1941,0.2009,0.1633,0.1245,0.0808,0.0188,-0.0193,-0.0206,-0.0295,-0.0217,-0.0208,-0.0201,-0.0183,-0.0284,-0.0285,-0.0286,-0.0287,0,0,0.0532,0.0569,0.0597,0.0898,0.1086,0.1397,0.1578,0.1804,0.1934,0.2026,0.1985,0.1851,0.1346,0.0893,0.0396,0.0063,0.0012,-0.0008,0.0057,0.0216,0.0228,-0.0104,-0.0063,0,0,0,0,0]}],[{"header":{"parameterUnit":"m.s-1","parameterCategory":2,"la1":30.2991,"la2":30.254,"lo1":-89.0895,"lo2":-89.0444,"dy":0.0017,"dx":0.0017,"nx":28,"ny":28,"refTime":"2025-07-07T09:00:00:Z","depth":"4","parameterNumber":2,"parameterNumberName":"U-component_of_CURRENTS"},"data":[0,0,0,0,0,0,0,0,0,0,0,0,0,0,0,0,0,0,0,0,0,0,0,0,0,0,0,0,0,0,0,0,0,0,0,0,0,0,0,0,0,0,0,0,0,0,0,0,0,0,0,0,0,0,0,0,0,0,0.1667,0.1669,0,0.1763,0.1764,0.1764,0.1828,0.1829,0.183,0.1831,0.19,0.1901,0.1902,0,0,0,0,0,0,0,0,0,0,0,0,0,0.1576,0.1577,0.1667,0.1669,0.167,0.1763,0.1764,0.1765,0.1828,0.1829,0.183,0.1831,0.1899,0.1901,0.1902,0,0,0,0,0,0,0,0,0,0,0,0,0,0.1634,0.1577,0.1667,0.1716,0.1722,0.1763,0.1764,0.1765,0.1828,0.1829,0.1831,0.1832,0.1899,0.19,0.1902,0.1886,0,0,0.1907,0.1907,0,0,0,0,0,0,0,0,0.163,0.1636,0.1708,0.1713,0.172,0.1789,0.1757,0.1806,0.1828,0.1783,0.1831,0.1832,0.1862,0.1867,0.1876,0.189,0.1893,0.1907,0.1908,0.1909,0.1909,0,0,0,0,0,0,0,0.1626,0.1633,0.1701,0.1709,0.1717,0.1747,0.1756,0.1767,0.181,0.1787,0.1793,0.181,0.1865,0.1874,0.1878,0.1894,0.1907,0.1908,0.1909,0.191,0.1984,0.1985,0,0,0,0,0,0,0.162,0.1629,0.1698,0.1704,0.1682,0.1748,0.1757,0.1762,0.1811,0.1821,0.1809,0.1813,0.1871,0.1876,0.1881,0.1977,0.1909,0.191,0.1911,0.1983,0.1984,0.1985,0,0,0,0,0,0,0.1617,0.1624,0.1694,0.1673,0.1685,0.1748,0.1753,0.1763,0.1817,0.1829,0.1838,0.1858,0.1872,0.1879,0.1913,0.1976,0.1911,0.1912,0.1982,0.1983,0.1985,0.2097,0,0,0,0,0,0,0.1614,0.1622,0.1642,0.1672,0.1686,0.1742,0.1752,0.1764,0.1825,0.1832,0.1872,0.1878,0.1874,0.191,0.1914,0.1977,0.1913,0.1981,0.1983,0.1984,0.2092,0.2102,0.2111,0,0,0,0,0,0.161,0.1627,0.1642,0.1652,0.1703,0.1744,0.1754,0.18,0.1826,0.1852,0.1873,0.1879,0.1926,0.1912,0.1917,0.1981,0.198,0.1982,0.1984,0.2088,0.21,0.211,0,0,0,0,0,0,0.1606,0.1636,0.1653,0.1681,0.1722,0.1757,0.1792,0.1823,0.1862,0.1882,0.1886,0.1892,0.1952,0.1936,0.1921,0.2003,0.1956,0.196,0.2033,0.2045,0.2054,0.2058,0.1915,0,0,0,0,0,0.161,0.1631,0.1665,0.1696,0.1714,0.176,0.1792,0.1828,0.186,0.1882,0.1912,0.1934,0.1957,0.1977,0.1992,0.203,0.2032,0.2072,0.2082,0.209,0.2094,0.2164,0.2181,0.1993,0.1993,0.1993,0,0,0.1615,0.1642,0.1652,0.1698,0.1731,0.1768,0.1782,0.1844,0.1889,0.188,0.1954,0.1976,0.1973,0.2024,0.2049,0.2025,0.2141,0.2093,0.2101,0.2099,0.2168,0.2187,0.2204,0.1995,0.1994,0.1994,0,0,0.1627,0.1659,0.1675,0.1711,0.1776,0.1807,0.1834,0.1894,0.1934,0.1994,0.2006,0.2059,0.2091,0.2112,0.2119,0.2184,0.2192,0.2197,0.2254,0.2323,0.234,0.2355,0.237,0.2386,0.22,0.2201,0.2201,0,0.1638,0.1661,0.1691,0.1723,0.1766,0.1827,0.1867,0.1911,0.1984,0.2018,0.2031,0.2119,0.2133,0.2192,0.2219,0.2212,0.2233,0.2218,0.234,0.2354,0.2368,0.238,0.2396,0.2206,0.2206,0.2205,0.2205,0,0.1654,0.1689,0.1708,0.1764,0.1813,0.1865,0.1926,0.1992,0.2056,0.2097,0.2191,0.2219,0.227,0.2293,0.2278,0.2382,0.2359,0.2351,0.2319,0.2394,0.2401,0.2415,0.2214,0.2212,0.2211,0.2209,0,0,0.1635,0.1701,0.1715,0.1743,0.1846,0.188,0.1969,0.2049,0.2111,0.2197,0.2276,0.2341,0.2381,0.2391,0.2407,0.2468,0.2583,0.2459,0.246,0.2487,0.2714,0.2546,0.2544,0.2615,0.2619,0.2621,0.2677,0,0.1645,0.1698,0.1742,0.1811,0.1842,0.1931,0.2,0.209,0.2174,0.2265,0.2331,0.2412,0.241,0.2464,0.2528,0.2577,0.2628,0.2566,0.2623,0.2623,0.2479,0.2558,0.2632,0.2687,0.269,0.2693,0.2694,0,0.1642,0.1684,0.1743,0.1826,0.185,0.1916,0.2051,0.2122,0.2253,0.2322,0.2428,0.2481,0.2592,0.2582,0.2711,0.268,0.2706,0.2731,0.2734,0.2547,0.2483,0.2597,0.272,0.2718,0.2716,0.2714,0.2713,0,0.1598,0.1681,0.1729,0.1762,0.1869,0.1933,0.2017,0.2152,0.2221,0.2383,0.2466,0.2579,0.2677,0.2741,0.2805,0.278,0.2929,0.2892,0.2753,0.274,0.2826,0.2809,0.2978,0.2978,0.2978,0.2978,0.2978,0,0.1569,0.1609,0.1719,0.1743,0.1819,0.1919,0.2018,0.2123,0.2276,0.2358,0.2503,0.2585,0.2736,0.2829,0.2847,0.2846,0.2968,0.2772,0.2757,0.2865,0.2853,0.2835,0.2817,0.298,0.2979,0.2979,0.2979,0,0.1485,0.1561,0.1608,0.1735,0.1792,0.1847,0.2014,0.2068,0.2255,0.2382,0.2448,0.2639,0.2751,0.2854,0.2966,0.2895,0.2909,0.2874,0.2976,0.2964,0.2651,0.2639,0.2702,0.2697,0.2693,0.2689,0.2686,0,0.1404,0.1431,0.1582,0.161,0.1672,0.178,0.1846,0.2041,0.2113,0.2376,0.2419,0.2612,0.2709,0.2738,0.2841,0.2864,0.2836,0.2819,0.2731,0.265,0.263,0.2625,0.2618,0.2679,0.2678,0.2677,0.2676,0,0.1234,0.1329,0.1373,0.1466,0.1538,0.1611,0.1744,0.1805,0.2025,0.222,0.2353,0.2435,0.2555,0.2626,0.2688,0.2689,0.2816,0.2772,0.2779,0.2696,0.2623,0.2606,0.2605,0.266,0.2663,0.2664,0.2665,0,0.1089,0.1084,0.1171,0.1254,0.1358,0.1425,0.1519,0.1636,0.1757,0.2097,0.2123,0.2333,0.2523,0.2534,0.2574,0.2587,0.2531,0.2446,0.2469,0.2487,0.2392,0.2266,0.2192,0,0,0,0,0,0.0922,0.0907,0.0942,0.1032,0.1165,0.1252,0.1429,0.1534,0.1798,0.1844,0.1996,0.2099,0.2204,0.2299,0.2264,0.2429,0.2506,0.2374,0.2411,0.2576,0.2594,0.2502,0,0,0,0,0,0,0.0777,0.0794,0.0852,0.0863,0.0928,0.1037,0.1167,0.1341,0.1398,0.1684,0.1752,0.1967,0.2086,0.2204,0.2222,0.2251,0.223,0.2513,0.2508,0.2566,0.2582,0.2596,0.2508,0,0,0,0,0]},{"header":{"parameterUnit":"m.s-1","parameterCategory":2,"la1":30.2991,"la2":30.254,"lo1":-89.0895,"lo2":-89.0444,"dy":0.0017,"dx":0.0017,"nx":28,"ny":28,"refTime":"2025-07-07T09:00:00:Z","depth":"4","parameterNumber":3,"parameterNumberName":"V-component_of_CURRENTS"},"data":[0,0,0,0,0,0,0,0,0,0,0,0,0,0,0,0,0,0,0,0,0,0,0,0,0,0,0,0,0,0,0,0,0,0,0,0,0,0,0,0,0,0,0,0,0,0,0,0,0,0,0,0,0,0,0,0,0,0,0.0022,0.0022,0,-0.0003,-0.0003,-0.0004,-0.0034,-0.0034,-0.0034,-0.0035,-0.0104,-0.0106,-0.0107,0,0,0,0,0,0,0,0,0,0,0,0,0,0.0003,0.0003,0.0022,0.0022,0.0022,-0.0003,-0.0003,-0.0004,-0.0034,-0.0034,-0.0034,-0.0035,-0.0103,-0.0105,-0.0107,0,0,0,0,0,0,0,0,0,0,0,0,0,-0.0005,0.0003,0.0022,0.0007,0.0005,-0.0002,-0.0003,-0.0004,-0.0034,-0.0034,-0.0034,-0.0035,-0.0103,-0.0105,-0.0108,-0.0118,0,0,-0.0115,-0.0117,0,0,0,0,0,0,0,0,-0.0005,-0.0005,0.0009,0.0008,0.0006,-0.0013,-0.0036,-0.0043,-0.0034,-0.0022,-0.0035,-0.0035,-0.0075,-0.008,-0.0088,-0.0121,-0.0124,-0.0116,-0.0117,-0.0118,-0.0119,0,0,0,0,0,0,0,-0.0004,-0.0004,0.0009,0.0009,0.0007,-0.0013,-0.0015,-0.0037,-0.005,-0.0023,-0.0025,-0.0023,-0.0077,-0.0086,-0.009,-0.0125,-0.0116,-0.0118,-0.0119,-0.012,-0.017,-0.017,0,0,0,0,0,0,0.0008,-0.0003,0.001,0.0009,0.0004,-0.0012,-0.0014,-0.0009,-0.0049,-0.0054,-0.0022,-0.0024,-0.0081,-0.0087,-0.0093,-0.0098,-0.0118,-0.0121,-0.0122,-0.017,-0.017,-0.017,0,0,0,0,0,0,0.0008,0.001,0.0011,0.0004,0.0004,-0.0011,-0.0006,-0.0009,-0.0016,-0.0047,-0.0054,-0.0024,-0.0082,-0.0089,-0.0103,-0.0101,-0.0122,-0.0124,-0.017,-0.017,-0.017,-0.0114,0,0,0,0,0,0,0.0007,0.001,0.0016,0.0006,0.0005,0.0014,-0.0005,-0.0009,-0.0012,-0.0015,-0.0051,-0.0058,-0.0082,-0.0099,-0.0106,-0.0105,-0.0126,-0.0171,-0.017,-0.017,-0.0116,-0.0112,-0.0108,0,0,0,0,0,0.0007,0.002,0.0017,0.0018,0.0015,0.0015,0.0012,-0.0002,-0.0012,-0.0011,-0.0032,-0.0057,-0.0102,-0.0101,-0.0109,-0.0108,-0.0171,-0.017,-0.017,-0.0118,-0.0113,-0.0108,0,0,0,0,0,0,0.0013,0.0018,0.0014,0.0028,0.0025,0.0011,0.0013,0.0002,-0.0014,-0.0017,-0.0051,-0.0059,-0.0073,-0.0097,-0.0094,-0.0122,-0.0142,-0.0143,-0.01,-0.0096,-0.0092,-0.0085,-0.0128,0,0,0,0,0,0.002,0.003,0.0029,0.0038,0.004,0.0027,0.0024,0.0016,0.0003,-0.0005,-0.0029,-0.0056,-0.0077,-0.009,-0.0113,-0.0125,-0.0161,-0.0132,-0.0128,-0.0125,-0.0125,-0.017,-0.017,-0.0168,-0.0168,-0.0168,0,0,0.0024,0.0029,0.0034,0.004,0.0036,0.0047,0.0024,0.0026,0.0031,-0.001,-0.0014,-0.0042,-0.0077,-0.009,-0.0099,-0.0109,-0.0144,-0.0124,-0.0121,-0.0123,-0.017,-0.017,-0.017,-0.0168,-0.0168,-0.0168,0,0,0.0042,0.0044,0.006,0.0065,0.0068,0.0061,0.0065,0.0056,0.0047,0.0042,0.0012,-0.0012,-0.0041,-0.0068,-0.0085,-0.0075,-0.0121,-0.0083,-0.0058,-0.0102,-0.0103,-0.0104,-0.0149,-0.0154,-0.0081,-0.0081,-0.0081,0,0.0047,0.0075,0.0064,0.0083,0.0096,0.0073,0.0097,0.0083,0.0068,0.0062,0.0049,-0.0003,-0.0032,-0.0055,-0.0051,-0.0067,-0.0098,-0.0071,-0.0097,-0.0098,-0.01,-0.0147,-0.0154,-0.0079,-0.0079,-0.0079,-0.0079,0,0.0082,0.0104,0.0115,0.0135,0.0141,0.016,0.0149,0.0143,0.0129,0.0112,0.0087,0.0043,0.0013,-0.0003,-0.0023,-0.005,-0.0071,-0.0085,-0.0106,-0.0097,-0.0147,-0.0155,-0.0075,-0.0076,-0.0076,-0.0077,0,0,0.0101,0.0135,0.0143,0.0171,0.0178,0.0193,0.0193,0.0193,0.0198,0.0159,0.0156,0.0106,0.0074,0.0053,0.0015,-0.0026,-0.0068,-0.0055,-0.0059,-0.0097,-0.0167,-0.0162,-0.017,-0.0085,-0.0086,-0.0087,-0.0196,0,0.0138,0.0197,0.0198,0.0253,0.0285,0.0268,0.0276,0.0265,0.0244,0.0229,0.0163,0.0147,0.0098,0.0089,0.0036,-0.0038,-0.0087,-0.0037,-0.0174,-0.0179,-0.0172,-0.0178,-0.009,-0.0203,-0.0204,-0.0206,-0.0207,0,0.0178,0.0219,0.0282,0.033,0.0343,0.0366,0.0384,0.0384,0.034,0.0322,0.0274,0.0224,0.0156,0.0117,-0.0023,0.0012,-0.0072,-0.0138,-0.0144,-0.0164,-0.0188,-0.0216,-0.0222,-0.0221,-0.022,-0.0219,-0.0218,0,0.022,0.0279,0.0337,0.0356,0.0396,0.042,0.0436,0.0415,0.043,0.038,0.0384,0.028,0.0245,0.0118,-0.0022,-0.0021,-0.0181,-0.0198,-0.0279,-0.028,-0.0277,-0.0275,-0.03,-0.03,-0.03,-0.03,-0.0299,0,0.0266,0.0315,0.0367,0.041,0.0478,0.0478,0.0535,0.0523,0.0518,0.054,0.044,0.0425,0.0245,0.0134,-0.0007,-0.0167,-0.0174,-0.0279,-0.0308,-0.0251,-0.0245,-0.0283,-0.028,-0.0304,-0.0303,-0.0302,-0.0301,0,0.0298,0.0328,0.041,0.0481,0.0503,0.0554,0.0623,0.0662,0.0637,0.066,0.0653,0.0536,0.0379,0.0192,-0.0019,-0.0129,-0.0293,-0.0349,-0.0276,-0.0297,-0.037,-0.0363,-0.0452,-0.0453,-0.0453,-0.0454,-0.0454,0,0.0328,0.0368,0.0472,0.0527,0.0567,0.0641,0.0697,0.0718,0.0758,0.0727,0.0741,0.0604,0.0501,0.0209,-0.0005,-0.0283,-0.0319,-0.04,-0.039,-0.0367,-0.0386,-0.0377,-0.0369,-0.0455,-0.0455,-0.0455,-0.0456,0,0.0389,0.0416,0.0486,0.0599,0.0684,0.0767,0.0845,0.0887,0.0898,0.0889,0.0824,0.0661,0.0477,0.022,0.0005,-0.0195,-0.0346,-0.0407,-0.0407,-0.0398,-0.0372,-0.0388,-0.038,-0.0458,-0.0457,-0.0457,-0.0457,0,0.0443,0.0491,0.0578,0.0673,0.0773,0.086,0.0898,0.0944,0.0975,0.0939,0.0911,0.0699,0.0571,0.0265,0.0064,-0.0133,-0.0185,-0.0235,-0.0245,-0.0245,-0.0155,-0.0089,-0.0114,0,0,0,0,0,0.0498,0.0552,0.0647,0.0753,0.0845,0.0897,0.0982,0.1006,0.1023,0.1,0.0959,0.0784,0.0473,0.0324,0.013,0.0036,-0.0228,-0.0198,-0.0292,-0.0469,-0.0467,-0.0396,0,0,0,0,0,0,0.0539,0.0627,0.0659,0.0792,0.0863,0.0967,0.1023,0.1033,0.101,0.0989,0.0823,0.0742,0.0431,0.0584,0.0126,0.0063,-0.002,-0.0348,-0.0352,-0.0471,-0.0468,-0.0466,-0.0393,0,0,0,0,0]}]]